Butler, GA

9:12 AM EST on December 11, 2019 (GMT -0500)
Butler

Weather History for K6A1 - October, 2019

Change the Weather History Date:

Friday, October 4, 2019

  Actual Average (KMCN) Record (KMCN)
Temperature  
Mean Temperature 86 °F -  
Max Temperature 99 °F 82 °F 103 °F (2019)
Min Temperature 74 °F 55 °F 36 °F (1974)
Cooling Degree Days 22    
Growing Degree Days 36 (Base 50)    
Moisture  
Dew Point 61 °F    
Average Humidity 47    
Maximum Humidity 79    
Minimum Humidity 22    
Precipitation  
Precipitation 0.00 in - - ()
Sea Level Pressure  
Sea Level Pressure 30.01 in    
Wind  
Wind Speed 5 mph ()    
Max Wind Speed 9 mph    
Max Gust Speed -    
Visibility 10.0 miles    
Events      
Averages and records for this station are not official NWS values.
T = Trace of Precipitation, MM = Missing Value Source: Averaged Metar Reports

Daily Weather History Graph

Daily Weather History Graph

Search for Another Location

Airport or City:

Astronomy

Oct. 04, 2019 Rise Set
Actual Time 7:32 AM EDT 7:18 PM EDT
Civil Twilight 7:08 AM EDT 7:42 PM EDT
Nautical Twilight 6:39 AM EDT 8:11 PM EDT
Astronomical Twilight 6:11 AM EDT 8:39 PM EDT
Moon 1:46 PM EDT (10/4) No Moon Set
Length of Visible Light 12h 34m
Length of Day
11h 45m
Waxing Crescent, 39% of the Moon is Illuminated
Oct 4
Waxing Crescent
Oct 5
First Quarter
Oct 13
Full
Oct 21
Last Quarter
Oct 27
New

Hourly Weather History & Observations

Time (EDT) Temp. Heat Index Dew Point Humidity Pressure Visibility Wind Dir Wind Speed Gust Speed Precip Events Conditions
12:15 AM 81.7 °F 82.9 °F 63.1 °F 53% 30.04 in 10.0 mi SW 5.8 mph - N/A   Unknown
12:35 AM 81.7 °F 82.9 °F 63.0 °F 53% 30.04 in 10.0 mi SSW 4.6 mph - N/A   Unknown
12:55 AM 81.5 °F 82.7 °F 62.8 °F 53% 30.04 in 10.0 mi SSW 4.6 mph - N/A   Unknown
1:15 AM 81.0 °F 82.2 °F 63.0 °F 54% 30.04 in 10.0 mi SSW 5.8 mph - N/A   Unknown
1:35 AM 80.1 °F 81.5 °F 63.3 °F 56% 30.04 in 10.0 mi SSW 4.6 mph - N/A   Unknown
1:55 AM 80.6 °F 81.9 °F 63.1 °F 55% 30.04 in 10.0 mi SSW 5.8 mph - N/A   Unknown
2:15 AM 80.2 °F 81.5 °F 63.0 °F 55% 30.04 in 10.0 mi SSW 5.8 mph - N/A   Unknown
2:35 AM 79.2 °F - 63.1 °F 58% 30.04 in 10.0 mi SSW 5.8 mph - N/A   Unknown
2:55 AM 77.9 °F - 63.5 °F 61% 30.04 in 10.0 mi SSW 4.6 mph - N/A   Unknown
3:15 AM 77.5 °F - 63.5 °F 62% 30.04 in 10.0 mi SSW 5.8 mph - N/A   Unknown
3:35 AM 76.6 °F - 63.5 °F 64% 30.03 in 10.0 mi SSW 5.8 mph - N/A   Unknown
3:55 AM 77.0 °F - 63.5 °F 63% 30.03 in 10.0 mi SW 6.9 mph - N/A   Unknown
4:15 AM 77.0 °F - 63.9 °F 64% 30.03 in 10.0 mi SW 6.9 mph - N/A   Unknown
4:35 AM 76.5 °F - 64.0 °F 65% 30.03 in 10.0 mi SW 6.9 mph - N/A   Unknown
4:55 AM 76.5 °F - 64.6 °F 67% 30.03 in 10.0 mi WSW 8.1 mph - N/A   Unknown
5:15 AM 76.1 °F - 65.3 °F 69% 30.03 in 10.0 mi SW 5.8 mph - N/A   Unknown
5:55 AM 75.7 °F - 65.8 °F 71% 30.03 in 10.0 mi West 5.8 mph - N/A   Unknown
6:15 AM 75.2 °F - 66.2 °F 73% 30.04 in 10.0 mi West 5.8 mph - N/A   Unknown
6:35 AM 75.6 °F - 66.9 °F 74% 30.04 in 10.0 mi WSW 6.9 mph - N/A   Unknown
6:55 AM 75.7 °F - 67.3 °F 75% 30.04 in 10.0 mi WSW 8.1 mph - N/A   Unknown
7:15 AM 75.2 °F - 67.3 °F 76% 30.04 in 10.0 mi West 8.1 mph - N/A   Unknown
7:35 AM 74.5 °F - 67.6 °F 79% 30.04 in 10.0 mi West 6.9 mph - N/A   Unknown
7:55 AM 74.7 °F - 67.6 °F 79% 30.05 in 10.0 mi WSW 5.8 mph - N/A   Unknown
8:15 AM 75.2 °F - 68.0 °F 78% 30.05 in 10.0 mi WSW 6.9 mph - N/A   Unknown
8:35 AM 76.5 °F - 68.0 °F 75% 30.06 in 10.0 mi WSW 8.1 mph - N/A   Unknown
8:55 AM 77.9 °F - 68.0 °F 71% 30.06 in 10.0 mi WSW 6.9 mph - N/A   Unknown
9:15 AM 79.2 °F - 67.6 °F 68% 30.06 in 10.0 mi West 8.1 mph - N/A   Unknown
9:35 AM 80.2 °F 82.8 °F 68.0 °F 66% 30.06 in 10.0 mi West 8.1 mph - N/A   Unknown
9:55 AM 81.5 °F 84.2 °F 67.6 °F 63% 30.06 in 10.0 mi West 5.8 mph - N/A   Unknown
10:15 AM 83.7 °F 86.5 °F 67.3 °F 58% 30.06 in 10.0 mi NNW 5.8 mph - N/A   Unknown
10:35 AM 84.6 °F 87.6 °F 67.8 °F 57% 30.06 in 10.0 mi NNW 4.6 mph - N/A   Unknown
10:55 AM 85.5 °F 87.9 °F 66.7 °F 53% 30.06 in 10.0 mi NW 4.6 mph - N/A   Unknown
11:15 AM 86.9 °F 89.6 °F 66.9 °F 51% 30.06 in 10.0 mi NW 3.5 mph - N/A   Unknown
11:35 AM 89.8 °F 92.1 °F 66.0 °F 45% 30.05 in 10.0 mi Calm Calm - N/A   Unknown
11:55 AM 91.2 °F 92.5 °F 64.0 °F 40% 30.05 in 10.0 mi NNW 4.6 mph - N/A   Unknown
12:15 PM 93.6 °F 93.4 °F 60.4 °F 33% 30.05 in 10.0 mi NNE 4.6 mph - N/A   Unknown
12:35 PM 93.4 °F 93.2 °F 59.9 °F 33% 30.04 in 10.0 mi NNE 4.6 mph - N/A   Unknown
12:55 PM 94.1 °F 94.2 °F 60.8 °F 33% 30.03 in 10.0 mi North 5.8 mph - N/A   Unknown
1:15 PM 95.2 °F 95.1 °F 59.9 °F 31% 30.02 in 10.0 mi NNW 4.6 mph - N/A   Unknown
1:35 PM 95.9 °F 95.7 °F 59.4 °F 30% 30.02 in 10.0 mi North 5.8 mph - N/A   Unknown
1:55 PM 97.9 °F 97.0 °F 57.7 °F 26% 30.01 in 10.0 mi NNW 4.6 mph - N/A   Unknown
2:15 PM 97.5 °F 96.1 °F 56.1 °F 25% 29.99 in 10.0 mi ENE 5.8 mph - N/A   Unknown
2:35 PM 95.7 °F 94.3 °F 56.7 °F 27% 29.98 in 10.0 mi North 4.6 mph - N/A   Unknown
2:55 PM 98.8 °F 97.4 °F 55.9 °F 24% 29.97 in 10.0 mi NE 8.1 mph - N/A   Unknown
3:15 PM 96.4 °F 95.3 °F 57.2 °F 27% 29.97 in 10.0 mi WSW 4.6 mph - N/A   Unknown
3:35 PM 99.7 °F 98.3 °F 55.6 °F 23% 29.96 in 10.0 mi NNE 9.2 mph - N/A   Unknown
3:55 PM 98.6 °F 97.6 °F 56.7 °F 25% 29.95 in 10.0 mi ENE 5.8 mph - N/A   Unknown
4:15 PM 98.2 °F 97.1 °F 56.3 °F 25% 29.95 in 10.0 mi NNW 6.9 mph - N/A   Unknown
4:35 PM 98.8 °F 97.0 °F 54.5 °F 23% 29.94 in 10.0 mi NW 3.5 mph - N/A   Unknown
4:55 PM 98.8 °F 97.0 °F 54.7 °F 23% 29.94 in 10.0 mi North 8.1 mph - N/A   Unknown
5:15 PM 98.1 °F 96.1 °F 54.7 °F 23% 29.94 in 10.0 mi North 6.9 mph - N/A   Unknown
5:35 PM 97.9 °F - 52.7 °F 22% 29.94 in 10.0 mi NNE 5.8 mph - N/A   Unknown
5:55 PM 97.5 °F 95.3 °F 53.4 °F 23% 29.95 in 10.0 mi North 5.8 mph - N/A   Unknown
6:15 PM 97.2 °F - 52.9 °F 22% 29.94 in 10.0 mi North 9.2 mph - N/A   Unknown
6:35 PM 95.4 °F 92.9 °F 53.4 °F 24% 29.95 in 10.0 mi North 5.8 mph - N/A   Unknown
6:55 PM 93.4 °F 91.3 °F 54.5 °F 27% 29.95 in 10.0 mi North 4.6 mph - N/A   Unknown
7:15 PM 91.4 °F 89.4 °F 55.4 °F 29% 29.95 in 10.0 mi Calm Calm - N/A   Unknown
7:35 PM 89.1 °F 87.3 °F 55.4 °F 32% 29.95 in 10.0 mi Calm Calm - N/A   Unknown
7:55 PM 87.3 °F 85.7 °F 55.6 °F 34% 29.96 in 10.0 mi Calm Calm - N/A   Unknown
8:15 PM 85.8 °F 84.5 °F 55.9 °F 36% 29.96 in 10.0 mi Calm Calm - N/A   Unknown
8:35 PM 83.5 °F 82.8 °F 57.0 °F 40% 29.97 in 10.0 mi Calm Calm - N/A   Unknown
8:55 PM 82.0 °F 81.8 °F 57.2 °F 43% 29.97 in 10.0 mi Calm Calm - N/A   Unknown
9:15 PM 84.0 °F 83.2 °F 56.3 °F 39% 29.98 in 10.0 mi Calm Calm - N/A   Unknown
9:35 PM 81.5 °F 81.4 °F 57.2 °F 43% 29.98 in 10.0 mi Calm Calm - N/A   Unknown
9:55 PM 81.0 °F 81.0 °F 57.4 °F 44% 29.98 in 10.0 mi Calm Calm - N/A   Unknown
10:15 PM 80.4 °F 80.7 °F 57.2 °F 45% 29.99 in 10.0 mi WNW 4.6 mph - N/A   Unknown
10:35 PM 79.2 °F - 58.6 °F 49% 29.98 in 10.0 mi NW 3.5 mph - N/A   Unknown
10:55 PM 79.5 °F - 58.1 °F 48% 29.99 in 10.0 mi Calm Calm - N/A   Unknown
11:15 PM 80.4 °F 80.8 °F 57.7 °F 46% 30.00 in 10.0 mi Calm Calm - N/A   Unknown
11:35 PM 83.5 °F 82.5 °F 55.6 °F 38% 29.99 in 10.0 mi NNW 3.5 mph - N/A   Unknown
11:55 PM 81.5 °F 81.5 °F 57.9 °F 44% 30.00 in 10.0 mi SSW 3.5 mph - N/A   Unknown